C/2017 K2 ( PanSTARRS )

Japanese version
Home page
Updated on September 23, 2018

---------------------------------------------------------------------

* Profile

Discovery Date May 21, 2017
Magnitude 20.8 mag
Discoverer Pan-STARRS 1 telescope (Haleakala)

* Pictures

* Orbital Elements

Epoch 2022 Dec. 7.0 TT = JDT 2459920.5
T 2022 Dec. 19.65269 TT                                 MPCW
q   1.7969523            (2000.0)            P               Q
z  -0.0004799      Peri.  236.19623     +0.01818159     +0.04923379
 +/-0.0000034      Node    88.23528     -0.18096441     +0.98245310
e   1.0008623      Incl.   87.56309     -0.98332157     -0.17989425
From 882 observations 2013 May 12-2018 Sept. 19, mean residual 0".5.

* Finding Charts

* Magnitudes Graph

        m1 = 1.0 + 5 log d + 10.0 log r

---------------------------------------------------------------------

The orbital elements are published on M.P.E.C. 2018-S50.
The charts are made with StellaNavigator Ver.10 (AstroArts).
The magnitudes graphs are made with Comet for Windows.

---------------------------------------------------------------------

Copyright(C) Seiichi Yoshida (comet@aerith.net). All rights reserved.